Regional Weather Roundup
Issued by NWS

Home | Current Version | Previous Version | Text Only | Print | Product List | Glossary Off
Versions: 1 2 3 4 5 6 7 8 9 10 11 12 13 14 15 16 17 18 19 20 21 22 23 24 25 26 27 28

000
ASUS45 KBOI 282210
RWRID

IDAHO REGIONAL WEATHER ROUNDUP
NATIONAL WEATHER SERVICE BOISE ID
400 PM MDT THU APR 28 2016

NOTE: "FAIR" INDICATES FEW OR NO CLOUDS BELOW 12000 FEET
WITH NO SIGNIFICANT WEATHER AND/OR OBSTRUCTIONS TO VISIBILITY

IDZ012-014-282300-
SOUTHWEST IDAHO


CITY           SKY/WX    TMP DP  RH WIND       PRES   REMARKS
BOISE          PTSUNNY   68  33  27 NW21G33   29.79S
CALDWELL       SUNNY     68  36  30 NW22      29.82S
MOUNTAIN HOME  MOSUNNY   67  33  28 NW18G30   29.79S
$$

IDZ016-017-282300-
SOUTHCENTRAL IDAHO


CITY           SKY/WX    TMP DP  RH WIND       PRES   REMARKS
BURLEY         CLOUDY    58  35  42 NW10      29.80S
JEROME         CLOUDY    58  35  42 S10       29.82F
TWIN FALLS     SUNNY     58  37  45 W8        29.82F
$$

IDZ019>023-282300-
SOUTHEAST IDAHO


CITY           SKY/WX    TMP DP  RH WIND       PRES   REMARKS
IDAHO FALLS    CLOUDY    58  26  29 N13G23    29.80R
POCATELLO      CLOUDY    62  30  29 NW13      29.78F
REXBURG        CLOUDY    56  24  29 NE6       29.80S
$$

IDZ006-010-011-018-031-032-282300-
CENTRAL IDAHO MOUNTAINS


CITY           SKY/WX    TMP DP  RH WIND       PRES   REMARKS
MCCALL         CLOUDY    49  29  46 N13G18    29.89S
HAILEY         PTSUNNY   52  37  58 SW8       29.82S
STANLEY          N/A     47  24  40 MISG      29.88S
SALMON         CLOUDY    48  30  49 E5        29.91R
CHALLIS        CLOUDY    51  23  33 CALM      29.87F
$$

IDZ002-004-006-007-026-282300-
NORTHERN IDAHO


CITY           SKY/WX    TMP DP  RH WIND       PRES   REMARKS
LEWISTON       CLOUDY    60  44  55 E14G23    29.94S
LOWELL           N/A     60  40  47 S7        29.93S
COEUR D`ALENE  CLOUDY    64  36  34 E9        29.93F
MULLAN PASS    CLOUDY    38  28  67 CALM      29.98S
$$




USA.gov is the U.S. government's official web portal to all federal, state and local government web resources and services.